DELTA 1 R/B, 9063

Orbit data source: Space-Track

DELTA 1 R/B, 9063 is space debris in SSO originally from a launch on Thu, 29 Jul 1976 UTC launched from the Air Force Western Test Range (AFWTR). Debris objects in space refer to the collection of defunct objects orbiting the Earth. Examples of debris include non-operational satellites, rocket bodies, and fragments generated from explosions, collisions, or faulty payload assembly.

Loading next visibility...
Identifier
9063, 1976-077B
Orbit
SSO
Country
Flag of USUS
Related business
Manufacturer
MDAC-HB
Mission
Spacecraft
Bus & Motor
DELTA/TR-201, Unknown motor
Mass
845 kg wet, 845 kg dry
Launch date (UTC)
1976-07-29 (50 years ago)
Launch vehicle
Unknown
Launch site
Air Force Western Test Range (AFWTR)
Object type
Payload
Rocket body
Debris
Shape & HBR
Unknown
Radar Cross Section
Large (>1 m²)

Expand to show TLE details & history
Last TLE update: 4 hours ago

TLE from 4 hours ago
0 DELTA 1 R/B
1  9063U 76077B   26119.22179447 -.00000031  00000-0  99834-4 0  9992
2  9063 102.0421 112.6491 0061618 120.7892 251.3617 12.50506538312988
Epoch: 2026-04-29T05:19Z
TLE epoch observation values (Epoch: 2026-04-29T05:19:23.042Z)
Latitude
11.18604°
Longitude
173.21132°
Altitude
1,479.899 km
Speed
7.117 km/s
True Right ascension
07h 20m 58s
True Declination
11° 07' 36"
Sunlit
Object was in daylight at epoch
Visualization orbit readout
Latitude
Unknown
Longitude
Unknown
Altitude
Unknown
Speed
Unknown
Apparent Right ascension
Unknown
Apparent Declination
Unknown
Sunlit
N/A
Visualization observer readout
Local Sidereal Time
16:43:31
Azimuth
Unknown
Elevation
Unknown
Doppler factor
Unknown
Orbital elements
Apogee altitude
1,508.237 km
Perigee altitude
1,411.644 km
Semi-major axis
7,838.077 km
Eccentricity
0.00616
Inclination
102.0421°
RAAN
112.6491°
Arg. of periapsis
120.7892°
True anomaly
250.6943°
Mean anomaly
251.3617°
Eccentric anomaly
251.02783°
Mean motion
3.12773 °/min
Orbital period
115.1 mins
BSTAR
0.000099834
Loading maneuver chart data...
Computing Atmospheric mass density...
Loading historical data...
Loading historical data...
Loading historical data...
Loading historical data...
Loading historical data...
Loading historical data...
Loading historical data...

Documentation

Showing up to 5 results
|